Location: Axtheid
(49.6213°N, 11.8205°E)
Time: 21:10:07
(UTC+00:00)

USA 281 - Pass Details

Date: 24 January 2021
Orbit: 1072 x 1086 km, 106.0° (Epoch: 26 February)

Event Time Altitude Azimuth Distance (km) Brightness Sun altitude
Exits shadow 19:54:05 34° 340° (NNW) 1,720 4.4 -38.2°
Drops below altitude 10° 19:57:31 10° 336° (NNW) 2,941 5.9 -38.8°
Sets 20:00:03 0° 335° (NNW) 3,899 6.6 -39.2°
